Flag Weather past 2 weeks in Palermo, Italy

Now
70 °F

Sunny.


Feels Like: 70 °F
Forecast: 62 / 72 °F
Wind: 7 mph from North

Location: Palermo / Punta Raisi

Current Time: Nov 28, 2014 at 10:11:36 AM

Latest Report: Nov 28, 2014 at 9:50 AM


Visibility: 10 mi

Pressure: 29.80 "Hg

Humidity: 78%

Dew point: 63 °F

Location of PalermoLocation

Historic Weather in Palermo — Graph

°F

Palermo temperature yesterday

Maximum temperature yesterday: 70 °F (at 2:20 PM)
Minimum temperature yesterday: 59 °F (at 11:20 PM)
Average temperature yesterday: 64 °F

Past Weeks' High & Low Weather Summary

 TemperatureHumidityPressure
High72 °F (Nov 15, 1:20 PM)94% (Nov 18, 4:20 AM)30.30 "Hg (Nov 18, 4:20 AM)
Low54 °F (Nov 21, 1:50 AM)50% (Nov 17, 6:50 PM)29.80 "Hg (Nov 28, 3:20 AM)
Average64 °F76%30.05 "Hg
* Reported Nov 13 8:20 AM — Nov 28 8:50 AM, Palermo, Weather by CustomWeather, © 2014

Note: Actual official high and low records may vary slightly from our data, if they occured in-between our weather recording intervals... More about our weather records

Advertising

Palermo weather history for previous 24 hours

 ConditionsComfort  
Time TempWeatherWind HumidityBarometerVisibility
8:50 AM
Nov 28
70 °FSunny.1 mph64%29.80 "Hg10 mi
8:20 AM66 °FPassing clouds.3 mph68%29.80 "HgN/A
7:50 AM68 °FSunny.1 mph69%29.80 "Hg10 mi
7:20 AM68 °FPassing clouds.8 mph73%29.80 "HgN/A
6:50 AM66 °FPassing clouds.5 mph68%29.80 "HgN/A
6:20 AM64 °FPassing clouds.3 mph73%29.80 "HgN/A
5:50 AM66 °FClear.1 mph68%29.80 "Hg10 mi
5:20 AM68 °FClear.9 mph73%29.80 "Hg10 mi
4:50 AM68 °FPassing clouds.8 mph69%29.80 "HgN/A
4:20 AM68 °FClear.13 mph69%29.80 "Hg10 mi
3:50 AM68 °FClear.3 mph69%29.80 "Hg10 mi
3:20 AM63 °FClear.3 mph73%29.80 "Hg10 mi
2:50 AM63 °FClear.1 mph77%29.83 "Hg10 mi
2:20 AM63 °FClear.1 mph73%29.83 "Hg10 mi
1:50 AM61 °FClear.2 mph77%29.83 "Hg10 mi
1:20 AM63 °FClear.1 mph77%29.83 "Hg10 mi
12:50 AM61 °FPassing clouds.5 mph77%29.86 "HgN/A
12:20 AM59 °FClear.8 mph82%29.86 "Hg10 mi
11:50 PM
Nov 27
59 °FClear.5 mph77%29.86 "Hg10 mi
11:20 PM59 °FClear.5 mph82%29.89 "Hg10 mi
10:50 PM61 °FClear.2 mph83%29.89 "Hg10 mi
10:20 PM61 °FPassing clouds.5 mph77%29.89 "HgN/A
9:50 PM63 °FClear.1 mph77%29.89 "Hg10 mi
9:20 PM64 °FClear.3 mph73%29.89 "Hg10 mi
8:50 PM63 °FClear.5 mph77%29.89 "Hg10 mi
8:20 PM63 °FClear.3 mph77%29.89 "Hg10 mi
7:50 PM64 °FClear.6 mph73%29.89 "Hg10 mi
7:20 PM64 °FClear.13 mph78%29.89 "Hg10 mi
6:50 PM64 °FClear.8 mph73%29.89 "Hg10 mi
6:20 PM64 °FClear.10 mph78%29.92 "Hg10 mi
5:50 PM64 °FClear.7 mph73%29.92 "Hg10 mi
5:20 PM66 °FClear.7 mph73%29.92 "Hg10 mi
4:50 PM66 °FClear.13 mph73%29.89 "Hg10 mi
4:20 PM66 °FSunny.14 mph78%29.92 "Hg10 mi
3:50 PM68 °FSunny.12 mph73%29.92 "Hg10 mi
3:20 PM68 °FSunny.8 mph69%29.92 "Hg10 mi
2:50 PM68 °FSunny.5 mph69%29.92 "Hg10 mi
2:20 PM70 °FSunny.5 mph69%29.92 "Hg10 mi
1:50 PM68 °FSunny.6 mph69%29.92 "Hg10 mi
1:20 PM68 °FSunny.6 mph69%29.92 "Hg10 mi
12:50 PM68 °FSunny.7 mph69%29.95 "Hg10 mi
12:20 PM68 °FSunny.3 mph78%29.95 "Hg10 mi
11:50 AM68 °FSunny.3 mph78%29.98 "Hg10 mi
11:20 AM66 °FSunny.3 mph78%29.98 "Hg10 mi
10:50 AM66 °FSunny.3 mph78%30.01 "Hg10 mi
10:20 AM66 °FPassing clouds.2 mph78%30.01 "HgN/A
Weather by CustomWeather, © 2014

See weather overviewHow to use our weather pages